{"data":{"norad_id":64415,"epoch":"2026-05-24T23:37:56.237088Z","epoch_age_seconds":76245,"freshness":"FRESH","line1":"1 64415U 25129D   26144.98467867  .00001899  00000+0  16685-3 0  9996","line2":"2 64415  70.0007 242.1654 0003376 268.6742  91.4030 14.98333777 52651","mean_motion":14.98333777,"eccentricity":0.0003376,"inclination_deg":70.0007,"raan_deg":242.1654,"arg_perigee_deg":268.6742,"mean_anomaly_deg":91.403,"bstar":0.00016685,"rev_number":5265,"period_min":96.106756859156,"perigee_km":569.69782973122,"apogee_km":574.39059208482,"semimajor_km":6950.181210908,"source":"CELESTRAK","updated_at":"2026-05-25T13:38:20.417294Z"}}